TimePDT,TemperatureF,Dew PointF,Humidity,Sea Level PressureIn,VisibilityMPH,Wind Direction,Wind SpeedMPH,Gust SpeedMPH,PrecipitationIn,Events,Conditions,WindDirDegrees,DateUTC
12:43 AM,59.0,57.2,94,30.09,10.0,Calm,Calm,-,N/A,,Overcast,0,2012-10-15 07:43:00
12:54 AM,59.0,57.9,96,30.11,10.0,ESE,3.5,-,N/A,,Overcast,120,2012-10-15 07:54:00
1:54 AM,60.1,57.9,93,30.11,10.0,Calm,Calm,-,N/A,,Overcast,0,2012-10-15 08:54:00
2:54 AM,59.0,57.0,93,30.11,10.0,Calm,Calm,-,N/A,,Overcast,0,2012-10-15 09:54:00
3:40 AM,60.8,57.2,88,30.07,10.0,Calm,Calm,-,N/A,,Overcast,0,2012-10-15 10:40:00
3:54 AM,60.1,57.0,90,30.10,10.0,WSW,3.5,-,N/A,,Overcast,240,2012-10-15 10:54:00
4:54 AM,59.0,57.0,93,30.09,10.0,WSW,3.5,-,N/A,,Overcast,240,2012-10-15 11:54:00
5:37 AM,59.0,57.2,94,30.08,8.0,Calm,Calm,-,N/A,,Overcast,0,2012-10-15 12:37:00
5:54 AM,57.9,57.0,97,30.10,5.0,Calm,Calm,-,N/A,,Overcast,0,2012-10-15 12:54:00
6:54 AM,57.9,57.0,97,30.10,8.0,Calm,Calm,-,N/A,,Overcast,0,2012-10-15 13:54:00
7:47 AM,57.2,57.2,100,30.07,1.5,SW,3.5,-,N/A,,Overcast,230,2012-10-15 14:47:00
7:54 AM,57.9,57.0,97,30.11,0.8,Calm,Calm,-,N/A,,Overcast,0,2012-10-15 14:54:00
8:02 AM,57.2,57.2,100,30.08,1.2,Calm,Calm,-,N/A,,Overcast,0,2012-10-15 15:02:00
8:13 AM,57.2,57.2,100,30.08,2.0,Calm,Calm,-,N/A,,Overcast,0,2012-10-15 15:13:00
8:25 AM,57.2,57.2,100,30.08,3.0,South,3.5,-,N/A,,Overcast,180,2012-10-15 15:25:00
8:33 AM,57.2,57.2,100,30.08,2.5,SSW,3.5,-,N/A,,Overcast,210,2012-10-15 15:33:00
8:54 AM,57.9,57.0,97,30.12,2.0,Calm,Calm,-,N/A,,Overcast,0,2012-10-15 15:54:00
9:01 AM,59.0,57.2,94,30.09,2.0,Calm,Calm,-,N/A,,Overcast,0,2012-10-15 16:01:00
9:41 AM,59.0,57.2,94,30.09,2.0,Calm,Calm,-,N/A,,Overcast,0,2012-10-15 16:41:00
9:45 AM,59.0,57.2,94,30.09,3.0,Calm,Calm,-,N/A,,Overcast,0,2012-10-15 16:45:00
9:54 AM,59.0,57.0,93,30.12,3.0,West,4.6,-,N/A,,Overcast,280,2012-10-15 16:54:00
10:30 AM,60.8,57.2,88,30.09,9.0,West,4.6,-,N/A,,Overcast,270,2012-10-15 17:30:00
10:37 AM,62.6,57.2,82,30.09,3.0,NW,4.6,-,N/A,,Overcast,320,2012-10-15 17:37:00
10:54 AM,62.1,57.0,84,30.12,10.0,Calm,Calm,-,N/A,,Mostly Cloudy,0,2012-10-15 17:54:00
11:36 AM,64.4,57.2,77,30.09,7.0,Variable,3.5,-,N/A,,Scattered Clouds,0,2012-10-15 18:36:00
11:54 AM,64.9,57.9,78,30.11,7.0,West,3.5,-,N/A,,Partly Cloudy,270,2012-10-15 18:54:00
12:54 PM,66.9,57.9,73,30.07,8.0,WSW,3.5,-,N/A,,Clear,240,2012-10-15 19:54:00
1:54 PM,68.0,59.0,73,30.05,9.0,West,3.5,-,N/A,,Clear,260,2012-10-15 20:54:00
2:54 PM,72.0,59.0,64,30.02,9.0,WNW,4.6,-,N/A,,Clear,290,2012-10-15 21:54:00
3:54 PM,72.0,57.9,61,30.01,10.0,WNW,9.2,-,N/A,,Clear,290,2012-10-15 22:54:00
4:54 PM,71.1,59.0,66,30.01,10.0,WNW,9.2,-,N/A,,Clear,290,2012-10-15 23:54:00
5:54 PM,68.0,57.9,70,30.00,10.0,West,9.2,-,N/A,,Clear,280,2012-10-16 00:54:00
6:54 PM,64.9,57.9,78,30.00,10.0,Calm,Calm,-,N/A,,Clear,0,2012-10-16 01:54:00
7:54 PM,64.9,59.0,81,30.01,10.0,WNW,3.5,-,N/A,,Clear,290,2012-10-16 02:54:00
8:54 PM,64.9,59.0,81,30.02,10.0,Calm,Calm,-,N/A,,Clear,0,2012-10-16 03:54:00
9:54 PM,64.0,59.0,84,30.02,10.0,Calm,Calm,-,N/A,,Clear,0,2012-10-16 04:54:00
10:54 PM,63.0,59.0,87,30.03,10.0,SSE,4.6,-,N/A,,Clear,150,2012-10-16 05:54:00
11:54 PM,63.0,59.0,87,30.03,10.0,SE,5.8,-,N/A,,Clear,130,2012-10-16 06:54:00